EW9479 Weather Reports


Display with metric or nautical units.
time (UTC)temp
F
wind
direction
speed
MPH
gust
MPH
rain 1hr
in
rain 24hr
in
rain mn
in
humidity
%
barometer
mb
20260505200045 66 200 3.0 12.0 0.00 0.60 0.60 84 1010.2
20260505194537 66 206 3.0 10.0 0.00 0.60 0.60 85 1010.1
20260505193044 66 212 4.0 9.0 0.00 0.60 0.60 86 1010.1
20260505191543 66 182 3.0 6.0 0.00 0.60 0.60 86 1010.4
20260505190040 65 228 2.0 5.0 0.00 0.60 0.60 88 1010.6
20260505184542 64 148 2.0 7.0 0.00 0.60 0.60 89 1010.8
20260505183044 64 170 2.0 8.0 0.00 0.60 0.60 89 1010.9
20260505181604 63 208 2.0 9.0 0.01 0.60 0.60 89 1011.0
20260505180052 63 181 4.0 8.0 0.06 0.60 0.60 90 1011.0
20260505174544 62 238 4.0 10.0 0.12 0.60 0.60 90 1011.1
20260505173038 61 206 3.0 11.0 0.18 0.60 0.60 91 1011.3
20260505171541 61 143 7.0 11.0 0.27 0.58 0.58 91 1011.8
20260505170037 60 174 9.0 14.0 0.31 0.54 0.54 91 1012.0
20260505164537 60 136 1.0 10.0 0.30 0.48 0.48 91 1011.6
20260505163040 60 189 1.0 5.0 0.28 0.41 0.41 91 1013.0
20260505161538 60 162 6.0 9.0 0.21 0.31 0.31 90 1013.0
20260505153046 59 205 3.0 8.0 0.13 0.13 0.13 89 1011.8
20260505151541 59 153 3.0 11.0 0.10 0.10 0.10 88 1012.1
20260505124536 60 165 2.0 8.0 0.00 0.00 0.00 77 1012.6
20260505123051 60 190 3.0 6.0 0.00 0.00 0.00 76 1012.7
20260505121540 60 186 3.0 7.0 0.00 0.00 0.00 76 1012.5
20260505120059 60 205 4.0 7.0 0.00 0.00 0.00 77 1012.2
20260505114538 59 140 1.0 4.0 0.00 0.00 0.00 77 1011.9
20260505113048 59 218 1.0 3.0 0.00 0.00 0.00 78 1011.6
20260505111543 59 0 0.0 3.0 0.00 0.00 0.00 78 1011.7
20260505110105 58 118 0.0 1.0 0.00 0.00 0.00 79 1011.4
20260505101537 58 0 0.0 1.0 0.00 0.00 0.00 78 1011.2
20260505100038 59 179 0.0 3.0 0.00 0.00 0.00 76 1011.1
20260505094545 60 200 1.0 2.0 0.00 0.00 0.00 75 1010.9
20260505093043 61 204 2.0 7.0 0.00 0.00 0.00 74 1010.7
20260505091551 61 187 3.0 8.0 0.00 0.00 0.00 74 1010.3
20260505090039 61 200 4.0 9.0 0.00 0.00 0.00 74 1010.1
20260505084539 60 191 5.0 9.0 0.00 0.00 0.00 74 1010.3
20260505083049 60 203 4.0 7.0 0.00 0.00 0.00 75 1010.5
20260505081537 60 193 5.0 8.0 0.00 0.00 0.00 74 1010.6
20260505080043 60 205 4.0 7.0 0.00 0.00 0.00 74 1010.2
20260505074539 61 198 4.0 6.0 0.00 0.00 0.00 74 1010.5
20260505073037 61 190 4.0 8.0 0.00 0.00 0.00 73 1011.2
20260505071538 61 186 4.0 7.0 0.00 0.00 0.00 72 1011.5
20260505070037 61 216 5.0 8.0 0.00 0.00 0.00 72 1011.8
20260505064554 62 181 4.0 8.0 0.00 0.00 0.00 71 1012.1
20260505063041 62 204 5.0 7.0 0.00 0.00 0.00 71 1012.1
20260505061539 62 204 5.0 8.0 0.00 0.00 0.00 71 1012.2
20260505060039 62 213 4.0 6.0 0.00 0.00 0.00 70 1012.2
20260505054547 62 222 4.0 8.0 0.00 0.00 0.00 70 1012.2
20260505053037 62 203 4.0 7.0 0.00 0.00 0.00 70 1012.2
20260505051538 62 200 2.0 4.0 0.00 0.00 0.00 70 1012.5
20260505041539 64 197 3.0 6.0 0.00 0.00 0.00 66 1012.2
20260505040048 64 188 2.0 4.0 0.00 0.00 0.00 65 1012.4
20260505034601 65 187 1.0 3.0 0.00 0.00 0.00 65 1012.2
20260505033042 65 198 2.0 4.0 0.00 0.00 0.00 64 1012.1
20260505031538 65 210 3.0 6.0 0.00 0.00 0.00 64 1012.1
20260505030048 66 186 4.0 6.0 0.00 0.00 0.00 63 1012.0
20260505024542 66 205 4.0 6.0 0.00 0.00 0.00 62 1011.9
20260505023043 67 203 2.0 5.0 0.00 0.00 0.00 61 1011.8
20260505021540 68 209 0.0 2.0 0.00 0.00 0.00 59 1011.6
20260505020052 69 186 2.0 5.0 0.00 0.00 0.00 58 1011.5
20260505014542 69 185 3.0 7.0 0.00 0.00 0.00 57 1011.4
20260505013044 70 200 4.0 7.0 0.00 0.00 0.00 56 1011.5
20260505011546 71 218 3.0 6.0 0.00 0.00 0.00 54 1011.5
20260505010057 72 180 4.0 7.0 0.00 0.00 0.00 52 1011.4
20260505004601 73 199 4.0 7.0 0.00 0.00 0.00 51 1011.4
20260505003045 74 200 4.0 9.0 0.00 0.00 0.00 50 1011.5
20260505001544 75 200 6.0 10.0 0.00 0.00 0.00 48 1011.5
20260505000042 76 195 5.0 9.0 0.00 0.00 0.00 48 1011.5
20260504234540 76 207 8.0 15.0 0.00 0.00 0.00 46 1011.4
20260504233038 76 219 8.0 13.0 0.00 0.00 0.00 46 1011.5
20260504231545 77 178 10.0 15.0 0.00 0.00 0.00 44 1011.5
20260504230038 77 199 10.0 18.0 0.00 0.00 0.00 45 1011.6
20260504224544 78 210 10.0 21.0 0.00 0.00 0.00 45 1011.6
20260504223039 78 204 9.0 19.0 0.00 0.00 0.00 43 1011.5
20260504221554 78 203 10.0 20.0 0.00 0.00 0.00 45 1011.5
20260504220037 79 198 11.0 18.0 0.00 0.00 0.00 43 1011.5
20260504214543 79 196 10.0 17.0 0.00 0.00 0.00 42 1011.4
20260504213043 79 213 14.0 22.0 0.00 0.00 0.00 44 1011.5
20260504211538 79 205 8.0 19.0 0.00 0.00 0.00 46 1011.4
20260504210046 79 177 13.0 23.0 0.00 0.00 0.00 45 1011.7
20260504204537 79 214 10.0 17.0 0.00 0.00 0.00 45 1012.0
20260504203044 79 214 12.0 19.0 0.00 0.00 0.00 46 1012.1
20260504201539 79 217 10.0 18.0 0.00 0.00 0.00 46 1012.4